Weather History for Tulsa Jones, OK

Change the Weather History Date:

Saturday, May 3, 2014

  Actual Average (KTUL) Record (KTUL)
Temperature  
Mean Temperature 66 °F 66 °F  
Max Temperature 89 °F 76 °F 96 °F (1920)
Min Temperature 43 °F 55 °F 35 °F (2005)
Cooling Degree Days 0 3  
Month to date cooling degree days 9  
Year to date cooling degree days 74  
Growing Degree Days 16 (Base 50)    
Moisture  
Dew Point 40 °F    
Average Humidity 43    
Maximum Humidity 85    
Minimum Humidity 16    
Precipitation  
Precipitation 0.00 in 0.18 in 2.19 in (1979)
Month to date precipitation 0.54  
Year to date precipitation 11.13  
Sea Level Pressure  
Sea Level Pressure 29.96 in    
Wind  
Wind Speed 3 mph (SSW)    
Max Wind Speed 14 mph    
Max Gust Speed 21 mph    
Visibility 10 miles    
Events      
T = Trace of Precipitation, MM = Missing Value Source: NWS Daily Summary

Daily Weather History Graph

Daily Weather History Graph

Search for Another Location

Airport:

Trip Planner

Search our weather history database for the weather conditions in past years. The results will help you decide how hot, cold, wet, or windy it might be!

Date:

Astronomy

May. 03, 2014 Rise Set
Actual Time 6:29 AM CDT 8:12 PM CDT
Civil Twilight 6:01 AM CDT 8:40 PM CDT
Nautical Twilight 5:28 AM CDT 9:14 PM CDT
Astronomical Twilight 4:52 AM CDT 9:49 PM CDT
Moon 10:01 AM CDT (5/3) No Moon Set
Length of Visible Light 14h 39m
Length of Day
13h 43m
Waxing Crescent, 20% of the Moon is Illuminated
May 3
Waxing Crescent
May 6
First Quarter
May 14
Full
May 21
Last Quarter
May 28
New

Hourly Weather History & Observations

Time (CDT) Temp. Dew Point Humidity Pressure Visibility Wind Dir Wind Speed Gust Speed Precip Events Conditions
12:53 AM 48.0 °F 39.9 °F 74% 29.96 in 10.0 mi Calm Calm - N/A   Clear
1:53 AM 46.0 °F 39.9 °F 79% 29.96 in 10.0 mi Calm Calm - N/A   Clear
2:53 AM 45.0 °F 39.0 °F 80% 29.96 in 10.0 mi Calm Calm - N/A   Clear
3:53 AM 44.1 °F 39.0 °F 82% 29.96 in 10.0 mi Calm Calm - N/A   Clear
5:53 AM 43.0 °F 37.9 °F 82% 29.97 in 10.0 mi Calm Calm - N/A   Clear
6:53 AM 44.1 °F 39.9 °F 85% 29.99 in 10.0 mi Calm Calm - N/A   Clear
7:53 AM 51.1 °F 41.0 °F 68% 30.00 in 10.0 mi Calm Calm - N/A   Clear
8:53 AM 61.0 °F 42.1 °F 50% 30.01 in 10.0 mi Calm Calm - N/A   Clear
9:53 AM 71.1 °F 39.0 °F 31% 30.00 in 10.0 mi SSW 9.2 mph - N/A   Clear
10:53 AM 75.9 °F 37.9 °F 25% 30.00 in 10.0 mi SSW 9.2 mph - N/A   Clear
11:53 AM 79.0 °F 37.9 °F 23% 30.00 in 10.0 mi Variable 4.6 mph - N/A   Clear
12:53 PM 82.9 °F 37.0 °F 19% 29.99 in 10.0 mi SW 10.4 mph - N/A   Clear
1:53 PM 84.9 °F 39.0 °F 20% 29.97 in 10.0 mi SSW 6.9 mph 18.4 mph N/A   Clear
2:53 PM 86.0 °F 37.9 °F 18% 29.96 in 10.0 mi Variable 6.9 mph - N/A   Clear
3:53 PM 88.0 °F 37.9 °F 17% 29.93 in 10.0 mi SSW 13.8 mph 20.7 mph N/A   Clear
4:53 PM 88.0 °F 37.0 °F 16% 29.92 in 10.0 mi SSW 13.8 mph 19.6 mph N/A   Clear
5:53 PM 88.0 °F 36.0 °F 16% 29.92 in 10.0 mi South 10.4 mph - N/A   Clear
6:53 PM 86.0 °F 37.0 °F 18% 29.92 in 10.0 mi South 10.4 mph - N/A   Clear
7:53 PM 82.0 °F 41.0 °F 23% 29.93 in 10.0 mi South 6.9 mph - N/A   Clear
8:53 PM 71.1 °F 45.0 °F 39% 29.94 in 10.0 mi South 3.5 mph - N/A   Clear
9:53 PM 73.0 °F 43.0 °F 34% 29.94 in 10.0 mi South 5.8 mph - N/A   Clear
10:53 PM 66.9 °F 44.1 °F 44% 29.95 in 10.0 mi SSW 4.6 mph - N/A   Clear
11:53 PM 64.0 °F 45.0 °F 50% 29.94 in 10.0 mi SW 3.5 mph - N/A   Clear